Location: Unspecified
(38.3333°N, 0.0000°E)
Time: 03:25:26
(UTC+00:00)

RESOURCESAT 2A - Visible Passes

Search period start: 04 April 2026 00:00
Search period end: 14 April 2026 00:00
Orbit: 819 x 821 km, 98.8° (Epoch: 29 March)

Date Brightness Start Highest point End Pass type
(mag) Time Alt. Az. Time Alt. Az. Time Alt. Az.
4 Apr ? 21:11:05 25° NNE 21:11:05 25° NNE 21:13:41 10° N visible
4 Apr ? 22:52:25 15° NW 22:52:25 15° NW 22:53:32 10° NW visible
5 Apr ? 20:49:54 20° NE 20:49:54 20° NE 20:52:21 10° NNE visible
5 Apr ? 22:31:15 21° NW 22:31:15 21° NW 22:33:08 10° NNW visible
6 Apr ? 20:28:42 14° NE 20:28:42 14° NE 20:30:36 10° NNE visible
6 Apr ? 22:10:03 28° NNW 22:10:03 28° NNW 22:12:30 10° NNW visible
7 Apr ? 21:48:52 32° N 21:48:52 32° N 21:51:41 10° N visible
8 Apr ? 21:27:41 31° NNE 21:27:41 31° NNE 21:30:42 10° N visible
8 Apr ? 23:09:01 12° NW 23:09:01 12° NW 23:09:42 10° NW visible
9 Apr ? 21:06:30 26° NE 21:06:30 26° NE 21:09:33 10° N visible
9 Apr ? 22:47:50 19° NW 22:47:50 19° NW 22:49:35 10° NW visible
10 Apr ? 20:45:18 20° NE 20:45:18 20° NE 20:48:09 10° NNE visible
10 Apr ? 22:26:39 26° NW 22:26:39 26° NW 22:29:08 10° NNW visible
11 Apr ? 20:24:07 13° NE 20:24:07 13° NE 20:26:16 10° NNE visible
11 Apr ? 22:05:28 34° NNW 22:05:28 34° NNW 22:08:28 10° NNW visible
12 Apr ? 21:44:17 38° N 21:44:17 38° N 21:47:37 10° N visible
13 Apr ? 21:23:06 35° NNE 21:23:06 35° NNE 21:26:36 10° N visible
13 Apr ? 23:04:27 15° WNW 23:04:27 15° WNW 23:05:50 10° NW visible
